Location: Kirtland Hills
(41.6239°N, 81.3071°W)
Time: 08:41:19
(UTC+00:00)

Cosmos 1076 Rocket - Pass Details

Date: 29 October 2020
Orbit: 589 x 613 km, 82.5° (Epoch: 26 November)

Event Time Altitude Azimuth Distance (km) Brightness Sun altitude
Rises 23:18:31 0° 4° (N) 2,832 6.8 -10.9°
Reaches altitude 10° 23:21:02 10° 17° (NNE) 1,927 5.8 -11.4°
Maximum altitude 23:24:37 26° 75° (ENE) 1,184 4.4 -12.0°
Drops below altitude 10° 23:28:10 10° 132° (SE) 1,921 5.7 -12.7°
Sets 23:30:40 0° 145° (SE) 2,821 6.7 -13.2°
